Location: Lafig�re
(44.4503°N, 4.0357°E)
Time: 15:08:18
(UTC+00:00)

Vanguard 2 Rocket - Pass Details

Date: 25 January 2021
Orbit: 554 x 3325 km, 32.9° (Epoch: 06 March)

Event Time Altitude Azimuth Distance (km) Brightness Sun altitude
Rises 16:51:49 0° 257° (WSW) 5,993 13.3 -2.2°
Reaches altitude 10° 16:56:44 10° 251° (WSW) 4,511 12.5 -3.0°
Maximum altitude 17:06:46 38° 190° (S) 1,957 9.0 -4.6°
Drops below altitude 10° 17:12:50 10° 124° (ESE) 2,713 9.0 -5.6°
Sets 17:15:04 0° 115° (ESE) 3,415 9.4 -6.0°
